Regional Weather Roundup
Issued by NWS

Home | Current Version | Previous Version | Text Only | Print | Product List | Glossary On
Versions: 1 2 3 4 5 6 7 8 9 10 11 12 13 14 15 16 17 18 19 20 21 22 23 24 25 26 27 28 29 30 31 32 33 34 35 36 37 38 39 40 41 42 43 44 45 46 47 48 49 50
000
ASUS43 KLMK 201010
RWRKY
KENTUCKY REGIONAL WEATHER ROUNDUP
NATIONAL WEATHER SERVICE LOUISVILLE KY
600 AM EDT SUN AUG 20 2017

NOTE "FAIR" INDICATES FEW OR NO CLOUDS BELOW 12,000 FEET
WITH NO SIGNIFICANT WEATHER AND/OR OBSTRUCTIONS TO VISIBILITY.

KYZ001>023-026-027-061>063-070>075-201100-
WESTERN AND SOUTH CENTRAL KENTUCKY

CITY           SKY/WX    TMP DP  RH WIND       PRES   REMARKS
PADUCAH        CLEAR     68  66  93 CALM      29.99R FOG
HENDERSON      MOCLDY    68  68 100 E3        30.00S
OWENSBORO      CLEAR     69  68  96 CALM      30.01S
HOPKINSVILLE   CLEAR     70  70  99 CALM      30.02R
BOWLING GREEN  CLEAR     69  69 100 CALM      30.03S FOG
GLASGOW        CLEAR    N/A N/A N/A CALM      30.04R HAZE
$$

KYZ024-025-028>034-038-045-046-053-201100-
NORTH CENTRAL KENTUCKY

CITY           SKY/WX    TMP DP  RH WIND       PRES   REMARKS
LOUISVILLE/SDF CLEAR     73  69  87 SE5       30.02R
LOUISVILLE/LOU CLEAR     71  70  96 CALM      30.03R
FORT KNOX      CLEAR     68  68 100 CALM      30.02S FOG
$$

KYZ035>037-039>044-047>052-055>060-089>105-201100-
NORTHEAST KENTUCKY

CITY           SKY/WX    TMP DP  RH WIND       PRES   REMARKS
LEXINGTON      CLEAR     68  64  87 S5        30.06S
COVINGTON      CLEAR     70  68  93 S6        30.04S
FRANKFORT      CLEAR     67  64  90 CALM      30.04R
$$

KYZ054-064>069-076>088-106>120-201100-
SOUTHEAST KENTUCKY

CITY           SKY/WX    TMP DP  RH WIND       PRES   REMARKS
JACKSON        CLEAR     69  66  90 CALM      30.10R
LONDON         CLEAR     66  64  93 CALM      30.09R FOG
SOMERSET       CLEAR     63  63 100 CALM      30.09R FOG
MIDDLESBORO    CLOUDY    66  66 100 CALM      30.12R FOG
MONTICELLO     SUNNY     63  63 100 W3        30.09R FOG
$$





USA.gov is the U.S. government's official web portal to all federal, state and local government web resources and services.